Location: Dittelbrunn
(50.0738°N, 10.2196°E)
Time: 22:10:52
(UTC+00:00)

Cosmos 2082 Rocket - Pass Details

Date: 18 September 2020
Orbit: 834 x 853 km, 71.0° (Epoch: 30 October)

Event Time Altitude Azimuth Distance (km) Brightness Sun altitude
Rises 22:23:44 0° 323° (NW) 3,393 6.2 -37.4°
Reaches altitude 10° 22:26:29 10° 312° (NW) 2,455 5.1 -37.6°
Enters shadow 22:28:28 19° 297° (WNW) 1,895 4.3 -37.6°
